Hourly Weather Luhove

Today, 10 May, Monday

Time Temperature Precipitation Wind Pressure Humidity
00:00 +7°C° 0 mm 3 mps 741 mmHg 69%
01:00 +5°C° 0 mm 3 mps 741 mmHg 70%
02:00 +5°C° 0 mm 3 mps 741 mmHg 71%
03:00 +5°C° 0 mm 3 mps 741 mmHg 71%
04:00 +5°C° 0 mm 3 mps 741 mmHg 71%
05:00 +4°C° 0 mm 3 mps 741 mmHg 72%
06:00 +8°C° 0 mm 3 mps 741 mmHg 67%
07:00 +10°C° 0 mm 4 mps 742 mmHg 63%
08:00 +12°C° 0 mm 4 mps 742 mmHg 58%
09:00 +13°C° 0 mm 5 mps 742 mmHg 55%
10:00 +14°C° 0 mm 5 mps 742 mmHg 52%
11:00 +16°C° 0 mm 5 mps 742 mmHg 49%
12:00 +16°C° 0 mm 5 mps 741 mmHg 48%
13:00 +17°C° 0 mm 5 mps 741 mmHg 48%
14:00 +17°C° 0 mm 5 mps 741 mmHg 47%
15:00 +17°C° 0 mm 5 mps 741 mmHg 50%
16:00 +18°C° 0 mm 4 mps 740 mmHg 52%
17:00 +18°C° 0 mm 4 mps 740 mmHg 55%
18:00 +15°C° 0 mm 4 mps 740 mmHg 61%
19:00 +13°C° 0 mm 3 mps 740 mmHg 67%
20:00 +11°C° 0 mm 3 mps 740 mmHg 74%
21:00 +10°C° 0 mm 3 mps 740 mmHg 75%
22:00 +9°C° 0 mm 3 mps 740 mmHg 77%
23:00 +9°C° 0 mm 3 mps 740 mmHg 78%

Tomorrow, 11 May, Tuesday

Time Temperature Precipitation Wind Pressure Humidity
00:00 +8°C° 0 mm 3 mps 740 mmHg 79%
01:00 +8°C° 0 mm 3 mps 740 mmHg 80%
02:00 +7°C° 0 mm 3 mps 740 mmHg 81%
03:00 +7°C° 0 mm 3 mps 740 mmHg 82%
04:00 +5°C° 0 mm 3 mps 740 mmHg 83%
05:00 +5°C° 0 mm 3 mps 740 mmHg 83%
06:00 +8°C° 0 mm 3 mps 740 mmHg 75%
07:00 +10°C° 0 mm 4 mps 740 mmHg 68%
08:00 +12°C° 0 mm 4 mps 740 mmHg 60%
09:00 +13°C° 0 mm 4 mps 740 mmHg 54%
10:00 +14°C° 0 mm 4 mps 740 mmHg 48%
11:00 +17°C° 0 mm 4 mps 739 mmHg 42%
12:00 +17°C° 0 mm 4 mps 739 mmHg 43%
13:00 +18°C° 0 mm 4 mps 739 mmHg 44%
14:00 +19°C° 0 mm 4 mps 738 mmHg 44%
15:00 +19°C° 0 mm 4 mps 738 mmHg 49%
16:00 +19°C° 0 mm 4 mps 738 mmHg 53%
17:00 +19°C° 0 mm 4 mps 737 mmHg 57%
18:00 +17°C° 0 mm 3 mps 737 mmHg 66%
19:00 +16°C° 0 mm 3 mps 737 mmHg 74%
20:00 +13°C° 0 mm 3 mps 737 mmHg 83%
21:00 +12°C° 0 mm 3 mps 736 mmHg 85%
22:00 +12°C° 0 mm 3 mps 736 mmHg 87%
23:00 +11°C° 0 mm 3 mps 736 mmHg 89%

Day after tomorrow, 12 May, Wednesday

Time Temperature Precipitation Wind Pressure Humidity
00:00 +11°C° 0 mm 3 mps 736 mmHg 91%
01:00 +11°C° 0 mm 3 mps 735 mmHg 93%
02:00 +10°C° 0 mm 2 mps 735 mmHg 94%
03:00 +10°C° 0 mm 3 mps 735 mmHg 94%
04:00 +10°C° 0 mm 4 mps 735 mmHg 94%
05:00 +9°C° 0 mm 5 mps 735 mmHg 95%
06:00 +9°C° 0 mm 5 mps 735 mmHg 88%
07:00 +9°C° 0 mm 6 mps 735 mmHg 82%
08:00 +9°C° 0 mm 6 mps 735 mmHg 76%
09:00 +10°C° 0 mm 6 mps 735 mmHg 70%
10:00 +11°C° 0 mm 7 mps 735 mmHg 64%
11:00 +12°C° 0 mm 7 mps 734 mmHg 58%
12:00 +12°C° 0 mm 7 mps 734 mmHg 58%
13:00 +12°C° 0 mm 7 mps 734 mmHg 57%
14:00 +13°C° 0 mm 6 mps 734 mmHg 57%
15:00 +13°C° 0 mm 6 mps 734 mmHg 58%
16:00 +11°C° 0 mm 6 mps 734 mmHg 60%
17:00 +11°C° 0 mm 6 mps 733 mmHg 61%
18:00 +10°C° 0 mm 5 mps 733 mmHg 66%
19:00 +8°C° 0 mm 4 mps 733 mmHg 70%
20:00 +8°C° 0 mm 3 mps 732 mmHg 75%
21:00 +8°C° 0 mm 3 mps 732 mmHg 78%
22:00 +7°C° 0 mm 3 mps 732 mmHg 81%
23:00 +5°C° 0 mm 3 mps 732 mmHg 85%

13 May, Thursday

Time Temperature Precipitation Wind Pressure Humidity
00:00 +5°C° 0 mm 3 mps 731 mmHg 85%
01:00 +5°C° 0 mm 3 mps 731 mmHg 84%
02:00 +4°C° 0 mm 3 mps 731 mmHg 84%
03:00 +5°C° 0 mm 4 mps 730 mmHg 83%
04:00 +5°C° 0 mm 4 mps 730 mmHg 82%
05:00 +6°C° 0 mm 5 mps 729 mmHg 81%
06:00 +7°C° 0 mm 5 mps 729 mmHg 82%
07:00 +8°C° 0 mm 6 mps 729 mmHg 83%
08:00 +8°C° 0 mm 7 mps 729 mmHg 84%
09:00 +10°C° 0 mm 7 mps 729 mmHg 81%
10:00 +11°C° 0 mm 7 mps 729 mmHg 77%
11:00 +12°C° 0 mm 8 mps 729 mmHg 73%
12:00 +12°C° 0.1 mm 8 mps 729 mmHg 76%
13:00 +12°C° 0.1 mm 8 mps 729 mmHg 78%
14:00 +12°C° 0.1 mm 8 mps 729 mmHg 81%
15:00 +11°C° 0 mm 7 mps 729 mmHg 83%
16:00 +11°C° 0 mm 6 mps 729 mmHg 86%
17:00 +10°C° 0 mm 6 mps 729 mmHg 88%
18:00 +10°C° 0 mm 5 mps 729 mmHg 90%
19:00 +9°C° 0 mm 5 mps 729 mmHg 92%
20:00 +10°C° 0 mm 4 mps 729 mmHg 93%
21:00 +10°C° 0 mm 4 mps 729 mmHg 94%
22:00 +10°C° 0 mm 3 mps 729 mmHg 94%
23:00 +10°C° 0 mm 2 mps 728 mmHg 95%

14 May, Friday

Time Temperature Precipitation Wind Pressure Humidity
00:00 +10°C° 0 mm 2 mps 728 mmHg 94%
01:00 +10°C° 0 mm 2 mps 728 mmHg 94%
02:00 +10°C° 0 mm 2 mps 728 mmHg 93%
03:00 +10°C° 0 mm 2 mps 728 mmHg 93%
04:00 +10°C° 0 mm 2 mps 728 mmHg 93%
05:00 +10°C° 0 mm 2 mps 728 mmHg 93%
06:00 +10°C° 0.1 mm 2 mps 728 mmHg 92%
07:00 +12°C° 0.1 mm 2 mps 728 mmHg 92%
08:00 +12°C° 0.1 mm 2 mps 729 mmHg 91%
09:00 +13°C° 0.2 mm 2 mps 729 mmHg 87%
10:00 +14°C° 0.2 mm 2 mps 729 mmHg 82%
11:00 +16°C° 0.2 mm 3 mps 730 mmHg 78%
12:00 +16°C° 0.3 mm 3 mps 730 mmHg 76%
13:00 +17°C° 0.3 mm 3 mps 730 mmHg 73%
14:00 +17°C° 0.3 mm 3 mps 730 mmHg 71%
15:00 +17°C° 0.1 mm 3 mps 730 mmHg 69%
16:00 +18°C° 0.1 mm 2 mps 730 mmHg 67%
17:00 +19°C° 0.1 mm 1 mps 730 mmHg 65%
18:00 +16°C° 0.2 mm 1 mps 730 mmHg 71%
19:00 +15°C° 0.2 mm 1 mps 730 mmHg 76%
20:00 +13°C° 0.2 mm 2 mps 730 mmHg 82%
21:00 +13°C° 0 mm 2 mps 731 mmHg 84%
22:00 +12°C° 0 mm 2 mps 731 mmHg 86%
23:00 +12°C° 0 mm 2 mps 731 mmHg 88%

15 May, Saturday

Time Temperature Precipitation Wind Pressure Humidity
00:00 +12°C° 0 mm 2 mps 731 mmHg 89%
01:00 +10°C° 0 mm 2 mps 732 mmHg 90%
02:00 +10°C° 0 mm 3 mps 732 mmHg 91%
03:00 +9°C° 0 mm 3 mps 732 mmHg 91%
04:00 +9°C° 0 mm 3 mps 732 mmHg 90%
05:00 +9°C° 0 mm 3 mps 733 mmHg 89%
06:00 +10°C° 0 mm 3 mps 733 mmHg 84%
07:00 +12°C° 0 mm 4 mps 733 mmHg 79%
08:00 +14°C° 0 mm 5 mps 733 mmHg 74%
09:00 +15°C° 0 mm 5 mps 734 mmHg 68%
10:00 +16°C° 0 mm 5 mps 734 mmHg 62%
11:00 +17°C° 0 mm 5 mps 734 mmHg 55%
12:00 +19°C° 0 mm 5 mps 734 mmHg 54%
13:00 +19°C° 0 mm 5 mps 734 mmHg 52%
14:00 +20°C° 0 mm 5 mps 734 mmHg 50%
15:00 +19°C° 0 mm 4 mps 734 mmHg 54%
16:00 +19°C° 0 mm 4 mps 734 mmHg 59%
17:00 +18°C° 0 mm 3 mps 734 mmHg 63%
18:00 +17°C° 0 mm 3 mps 734 mmHg 69%
19:00 +15°C° 0 mm 2 mps 734 mmHg 75%
20:00 +14°C° 0 mm 2 mps 734 mmHg 81%
21:00 +13°C° 0 mm 2 mps 734 mmHg 82%
22:00 +13°C° 0 mm 1 mps 734 mmHg 84%
23:00 +12°C° 0 mm 1 mps 734 mmHg 85%
Show more

We Need Your Consent

Meteoprog and our Service Providers may store and access personal data such as cookies, device identifiers or other similar technologies on your device and process such data to personalise content and ads, as well as provide social media features and to analyse the traffic.

  • Store and/or access information on your device

    Cookies, device identifiers or other information can be stored or accessed on your device for the purposes indicated above.

  • Personalised ads and content, ad and content measurement, audience insights, and products development

    Ads and content can be personalised based on a profile. More data can be added to better personalise ads and content. Ad and content performance can be measured. Insights about the audience who saw the ads and content can be derived. Such data can be used to develop or improve user’s experience, systems and software.

By clicking ‘I Agree’ you will allow the use of indicated cookies, device identifiers, web beacons or other similar technologies. Your settings can be changed in the browser on your device.

For certain purposes, legitimate interests may be relied on, rather than consent. You can read more about this in our Privacy and Cookie Policy.